Content
SEND FEEDBACK

Daily
Averages
Monthly
Summary
Mexico

CANCUN, QUINTANA ROO


Home > North America > Mexico > Quintana Roo
Elevation: 9 meters     Latitude: 21 09N     Longitude: 086 49W

WEATHER
 
SELECT A DAY
Number of Records: 163,905;   Date Range: 1/1/95 - 8/10/14
 
SHARE

PRINT THIS DATA

[ ← Previous Day ]
WEATHER ALMANAC - 18 MARCH, 2013
[ Next Day → ]
[ °F ]   °C
Weather ElementAverageHighLow
Temperature26.8 °C29 °C (10:42 am)25 °C (1:44 am)
Dewpoint22.8 °C23 °C (1:44 am)22 °C (10:42 am)
Humidity79 %89 % (1:44 am)66 % (10:42 am)
Barometer1013.2 hPa1014.9 hPa (8:47 am)1011.5 hPa (4:54 pm)
Wind Speed22 km/h37 km/h (11:44 am)
Wind Gust46.3 km/h (12:40 pm)
Weather ElementAverage
Visibility10.5 km
Wind DirectionSSE (150.9 °)

Weather ElementTotal
Precipitation---
Cooling Degree Days8.7 (Base 18.3)
Growing Degree Days17 (Base 10)
Averaged from 23 records on 18 March, 2013
WEATHER CONDITIONS BREAKOUT
WIND DIRECTION BREAKOUT
WEATHER BY HOUR - 18 MARCH, 2013
[ °F ]   °C
Local TimeTemperatureDewpointHumidityBarometerVisibilityWind DirectionWind SpeedGust SpeedPrecipitationEventsConditions
1:44 AM25 °C23 °C89 %1013.2 hPa9.7 kmSE (140°)16.7 km/hMostly Cloudy
2:49 AM25 °C23 °C89 %1012.9 hPa9.7 kmSE (140°)18.5 km/hOvercast
3:40 AM26 °C23 °C83 %1012.9 hPa9.7 kmSE (140°)18.5 km/hOvercast
4:45 AM25 °C23 °C89 %1012.9 hPa9.7 kmSE (140°)14.8 km/hMostly Cloudy
5:46 AM25 °C23 °C89 %1013.2 hPa9.7 kmSSE (150°)18.5 km/hScattered Clouds
6:49 AM26 °C23 °C83 %1013.5 hPa9.7 kmSE (140°)20.4 km/hScattered Clouds
7:45 AM27 °C23 °C79 %1014.2 hPa9.7 kmSE (140°)33.3 km/hScattered Clouds
8:47 AM28 °C23 °C74 %1014.9 hPa9.7 kmSSE (160°)31.5 km/hScattered Clouds
9:41 AM28 °C23 °C74 %1014.6 hPa9.7 kmSSE (160°)31.5 km/hMostly Cloudy
10:42 AM29 °C22 °C66 %1014.6 hPa9.7 kmSSE (160°)31.5 km/hMostly Cloudy
11:44 AM29 °C22 °C66 %1014.2 hPa11.3 kmSSE (150°)37 km/hMostly Cloudy
12:40 PM29 °C23 °C70 %1013.5 hPa9.7 kmSSE (160°)27.8 km/h46.3 km/hMostly Cloudy
1:41 PM29 °C23 °C70 %1012.9 hPa9.7 kmSSE (160°)29.6 km/hMostly Cloudy
2:51 PM29 °C22 °C66 %1012.5 hPa11.3 kmSouth (170°)25.9 km/hScattered Clouds
3:46 PM28 °C22 °C70 %1011.9 hPa11.3 kmSouth (180°)20.4 km/hMostly Cloudy
4:54 PM27 °C23 °C79 %1011.5 hPa11.3 kmSE (140°)25.9 km/hMostly Cloudy
5:42 PM26 °C23 °C83 %1011.5 hPa11.3 kmSSE (160°)20.4 km/hMostly Cloudy
6:41 PM26 °C23 °C83 %1012.2 hPa11.3 kmSE (140°)18.5 km/hMostly Cloudy
7:44 PM26 °C23 °C83 %1014.2 hPa11.3 kmSE (130°)5.6 km/hMostly Cloudy
8:40 PM26 °C23 °C83 %1013.5 hPa11.3 kmSE (140°)14.8 km/hScattered Clouds
9:48 PM26 °C23 °C83 %1013.2 hPa11.3 kmSSE (160°)9.3 km/hScattered Clouds
10:47 PM26 °C23 °C83 %1012.2 hPa11.3 kmSSE (160°)25.9 km/hScattered Clouds
11:46 PM26 °C23 °C83 %1011.9 hPa11.3 kmSSE (150°)11.1 km/hScattered Clouds
Hourly data recorded from MMUN, located 0 kilometers away from Cancun, Quintana Roo







STORIES FROM OUR PARTNERS